Temperature
10 9 8 10 11 12 14 15 15 17 18 18 18 18 19 20 20 21 22 22 21 19 17 16 15 15 15 15 15 16 16 15 14 14 14 13 13 12 12 12 12 12 12 12
8 8 10 11 12 12 12 13 14 16 18 19 18 18 19 20 20 21 22 22 21 17 16 15 14 14 14 14 14 14 14 14 13 13 13 13 13 12 12 12 12 12 12 11
8 9 11 11 11 12 12 12 13 15 18 19 18 17 18 19 20 21 22 22 20 17 15 15 14 14 14 14 14 14 14 14 14 13 13 13 12 12 12 12 12 11 11 11
8 10 10 10 10 11 11 13 14 14 16 16 16 15 18 19 19 19 20 21 18 16 15 14 13 13 14 14 14 14 14 13 13 13 13 13 12 12 12 11 11 11 11 10
8 9 9 9 10 11 11 13 14 14 15 15 16 16 17 20 19 18 18 20 17 16 15 13 13 13 13 13 13 13 13 13 13 12 12 12 12 12 11 10 10 10 10 10
8 10 10 10 11 11 12 12 13 13 14 14 15 15 16 19 19 19 18 18 16 15 14 13 12 12 12 13 13 13 13 12 12 12 12 12 11 11 10 10 10 9 9 9
7 8 9 9 10 10 10 10 11 11 12 13 16 16 17 20 20 19 18 17 16 15 13 12 11 11 12 12 12 12 12 12 12 12 11 11 11 10 10 9 9 9 9 8
7 8 9 9 9 10 9 10 11 13 12 15 17 16 18 18 18 19 18 17 15 14 12 11 11 11 11 12 12 12 12 12 11 11 11 10 10 9 9 9 9 8 8 7
7 8 10 10 10 10 10 10 13 15 16 16 16 18 18 17 16 17 17 16 14 13 12 11 11 10 11 11 11 11 11 11 11 10 10 9 9 9 8 8 8 7 7 6
6 7 10 10 9 9 11 12 13 14 15 15 16 17 17 16 15 16 15 15 14 13 12 11 11 10 10 10 10 11 11 11 10 10 9 9 8 8 8 7 7 6 6 5
7 7 9 9 9 10 11 12 14 15 16 17 16 17 18 17 17 16 15 15 14 13 12 11 10 10 10 10 10 10 10 10 9 9 8 8 7 7 7 6 6 5 4 3
7 6 8 9 10 11 12 14 15 15 16 17 17 16 18 17 17 16 16 16 15 14 12 11 10 10 9 9 9 9 9 9 8 8 7 7 7 6 6 5 5 4 3 3
8 7 9 9 10 11 12 14 15 16 16 16 16 15 17 16 16 17 16 16 15 14 12 11 10 9 9 9 9 8 8 8 7 7 6 6 6 5 5 4 3 3 2 2
10 9 10 11 12 12 12 14 15 15 14 16 17 16 17 15 15 15 16 16 14 13 12 11 10 9 8 8 8 7 7 7 6 6 6 5 5 4 4 3 2 2 2 2
10 10 12 13 14 14 14 14 14 14 15 16 18 17 17 16 15 15 16 15 14 13 12 10 9 8 8 7 7 7 6 6 6 5 5 5 4 3 3 2 2 1 1 1
11 11 13 14 15 15 14 14 15 15 15 16 16 17 18 17 17 16 15 15 14 13 11 10 9 8 8 7 6 6 6 5 5 5 4 4 3 3 2 1 1 1 1 0
12 12 13 14 15 15 14 15 15 15 15 15 15 17 17 16 16 15 15 15 14 13 11 10 9 8 7 6 6 5 5 5 4 4 4 3 2 2 1 1 0 0 -0 -1
12 12 12 13 14 12 16 17 16 16 16 16 16 17 17 15 15 15 15 14 14 12 11 10 9 8 7 6 5 5 4 4 4 3 3 2 2 1 1 0 0 -0 -1 -1
13 12 12 12 13 14 16 15 16 16 15 16 16 16 14 13 12 11 13 13 12 11 10 9 8 7 6 5 4 4 4 3 3 3 2 1 1 0 0 -0 -0 -1 -1 -2
12 12 11 11 12 13 14 15 15 16 15 16 16 14 11 12 10 9 10 11 10 10 9 8 7 6 5 4 4 3 3 3 2 2 1 1 0 -0 -0 -1 -1 -1 -2 -3
10 10 10 11 11 13 13 14 14 14 13 14 15 13 12 11 11 9 9 9 9 9 8 7 6 5 4 4 3 3 3 2 2 1 1 0 -0 -0 -1 -1 -2 -2 -3 -4
10 10 10 10 10 11 13 13 13 12 12 13 14 12 9 8 8 8 8 8 8 7 6 6 5 4 3 3 3 3 2 1 1 0 0 -0 -0 -1 -1 -2 -2 -3 -4 -4
11 12 11 11 11 11 12 12 12 13 12 12 11 10 9 7 6 7 7 7 7 6 5 5 4 4 3 2 2 2 1 1 0 0 -0 -1 -1 -1 -2 -3 -3 -4 -5 -5
12 12 12 12 11 11 11 11 12 12 11 11 10 10 10 8 7 7 7 6 6 5 5 4 4 3 3 2 1 1 1 0 0 -0 -1 -1 -1 -2 -2 -3 -4 -5 -6 -6
11 11 12 12 10 9 10 10 11 11 10 10 9 9 9 9 7 7 6 6 5 5 4 3 3 2 2 1 1 0 0 -0 -0 -1 -1 -2 -2 -3 -3 -4 -5 -5 -6 -7
10 11 11 12 11 10 9 10 10 9 9 9 9 8 8 8 7 7 6 5 5 4 3 3 2 2 1 1 0 -0 -0 -0 -1 -1 -2 -2 -3 -3 -4 -5 -5 -5 -7 -8
Wind_Speed
10 11 17 20 24 21 18 18 19 18 17 19 20 19 16 14 13 12 11 9 8 11 10 8 7 6 6 7 8 9 10 10 9 9 9 8 7 7 7 6 10 12 12 12
12 21 23 19 20 23 25 23 19 15 19 20 15 15 12 13 14 13 11 10 10 14 10 8 8 8 8 8 8 9 10 10 10 9 8 8 8 7 6 5 7 11 12 11
24 16 16 21 22 24 27 25 21 17 16 15 8 11 14 15 15 13 11 9 14 17 13 10 9 9 8 8 9 10 11 12 12 11 9 9 7 6 5 6 5 8 11 11
19 23 19 18 23 25 25 26 23 21 13 8 10 6 12 19 20 17 12 9 15 16 14 12 10 9 9 8 9 10 11 11 10 9 8 9 7 6 5 4 5 7 9 9
11 14 21 23 24 25 18 18 22 21 15 9 10 7 8 9 11 12 11 11 16 16 15 13 11 10 9 8 8 9 10 10 10 10 10 9 8 6 5 5 6 6 6 7
17 13 13 20 22 22 18 16 18 16 9 9 10 8 7 9 14 16 13 13 16 16 15 13 10 10 9 8 9 9 11 11 10 11 10 9 9 8 8 7 6 5 5 5
14 19 15 10 14 18 19 14 9 10 9 7 11 9 8 1 7 12 17 16 16 16 16 14 12 10 9 9 9 9 10 11 10 10 10 10 10 9 8 6 6 5 4 4
8 11 16 13 16 14 24 20 8 7 8 6 10 10 4 9 9 11 16 16 17 16 14 13 12 11 10 10 10 10 10 10 10 10 9 9 9 6 5 7 6 5 4 3
6 8 10 16 14 12 14 19 11 2 9 6 7 6 6 8 9 9 14 16 16 16 15 14 12 11 11 10 10 10 10 10 9 9 9 8 8 7 6 7 6 4 4 4
3 7 8 11 8 14 11 12 7 4 8 6 10 10 10 11 11 11 14 17 16 16 15 14 13 12 10 9 10 10 10 10 9 9 7 7 7 6 6 6 6 5 5 5
6 6 4 8 10 12 11 11 7 3 1 3 7 3 4 12 12 13 14 17 17 16 16 14 13 12 11 11 10 10 10 9 9 8 8 8 6 6 6 6 5 5 5 6
9 5 4 5 4 8 8 8 7 3 2 3 4 4 5 9 8 9 12 15 16 15 14 13 13 13 11 11 10 10 9 9 8 8 8 7 6 5 6 5 5 5 6 6
9 6 3 5 3 5 5 8 7 3 2 2 3 5 4 9 8 8 12 14 15 15 14 13 13 12 11 11 10 10 9 9 8 8 7 7 6 6 5 5 6 6 6 6
6 5 4 3 6 8 6 8 8 4 2 1 2 8 7 9 9 9 11 13 15 15 14 13 12 11 11 10 10 10 9 9 8 8 7 7 5 5 4 5 5 6 6 7
5 5 6 5 7 12 10 11 11 9 7 4 2 6 10 11 11 11 11 12 14 14 14 13 13 11 11 10 10 10 9 9 8 7 7 6 4 4 4 4 5 6 7 8
6 5 5 0 4 9 12 14 15 14 13 10 8 4 5 10 11 11 12 12 13 13 13 13 12 12 11 11 10 11 9 8 8 7 6 5 3 3 3 4 5 7 7 8
6 4 3 1 5 5 6 13 15 14 13 13 13 8 3 7 10 11 12 11 11 11 11 12 11 11 11 11 11 10 9 8 7 7 5 4 3 3 4 5 6 7 7 7
6 4 3 1 4 4 3 4 11 13 13 13 10 6 5 8 8 8 8 10 10 11 11 11 10 11 11 11 11 10 9 8 7 6 4 3 2 3 4 6 7 7 7 7
4 3 1 1 2 5 3 1 3 8 9 11 12 8 9 14 10 9 9 9 10 10 11 10 11 12 11 12 11 11 9 8 6 5 3 2 2 4 5 6 7 7 7 8
2 2 1 0 1 2 2 3 5 1 4 2 6 11 15 11 6 5 7 12 13 12 12 12 13 13 12 11 10 10 8 7 6 4 3 2 2 4 6 6 7 7 7 8
5 4 4 3 2 4 2 1 2 3 2 4 2 11 12 6 7 13 13 12 12 12 12 13 13 11 10 10 9 9 8 6 6 4 1 2 3 4 6 6 6 7 8 9
9 7 7 5 5 6 3 1 1 2 0 3 8 13 14 15 16 15 13 12 12 12 11 11 11 10 9 9 9 9 7 6 5 2 1 3 4 5 6 6 7 7 8 9
9 9 7 8 6 2 3 4 2 2 5 7 10 15 17 16 14 13 11 10 10 10 10 10 11 10 8 7 7 8 6 6 3 1 2 4 5 5 6 6 7 7 7 7
4 3 4 5 4 5 4 3 2 6 9 10 12 13 14 15 13 13 11 10 9 9 9 10 10 10 8 7 7 7 7 4 2 2 3 4 5 6 6 6 6 6 7 7
6 6 4 4 6 6 3 4 7 11 12 12 12 12 13 14 13 11 10 9 8 8 7 8 9 9 8 7 7 6 5 4 3 3 4 5 5 6 6 7 6 8 6 9
6 6 7 6 9 7 7 8 10 12 11 12 14 12 10 11 11 11 9 8 8 8 8 8 8 9 8 7 7 6 5 4 3 3 4 4 5 5 6 7 8 12 14 20
Wind_Direction
209 216 222 220 221 235 247 240 231 230 220 228 233 239 238 235 243 245 238 234 170 123 116 125 133 119 94 84 95 104 107 106 102 103 101 96 90 79 69 63 63 59 53 49
226 227 232 234 232 233 242 251 250 238 221 225 234 240 241 234 231 228 228 221 156 125 126 131 126 110 100 94 91 92 93 93 93 96 96 100 99 92 86 71 61 61 54 47
224 232 230 236 234 232 234 237 243 243 230 219 231 258 250 244 238 229 223 212 148 139 139 138 114 97 89 84 85 92 92 95 98 101 104 106 100 98 89 83 76 66 61 48
235 238 239 236 234 229 234 231 237 243 228 210 199 246 242 229 221 217 202 179 143 139 138 133 123 110 98 90 87 92 98 103 110 114 112 111 106 104 103 103 100 91 75 58
229 224 226 234 234 228 233 232 231 238 229 222 199 221 268 249 189 180 179 162 141 139 137 132 127 119 104 93 88 87 87 83 82 82 87 95 97 100 92 80 69 82 79 66
248 242 230 233 237 230 233 241 237 236 223 224 213 214 259 244 186 178 172 149 140 138 132 126 121 115 107 98 91 90 88 81 77 79 79 85 88 82 76 68 56 56 66 58
244 238 230 235 232 219 224 220 201 190 194 208 195 206 235 308 112 150 153 146 143 139 137 136 137 133 128 120 113 107 102 94 86 82 77 74 77 76 67 62 57 51 43 36
232 235 215 210 219 209 216 218 204 168 164 180 194 207 204 124 87 107 138 142 143 144 144 146 146 140 135 134 127 116 108 101 93 88 85 77 74 75 69 62 57 54 46 27
243 247 199 198 202 212 209 215 240 224 161 161 175 187 127 120 118 128 141 146 151 152 151 152 147 141 139 138 127 119 113 107 102 96 91 82 78 75 67 63 54 41 26 15
235 278 207 179 191 227 234 206 221 215 164 170 175 186 172 168 164 163 159 159 159 157 155 153 148 143 142 133 126 123 117 112 102 92 91 89 76 71 68 62 48 27 12 7
191 268 228 169 195 207 199 203 218 246 301 169 152 133 105 153 159 165 168 164 163 161 158 153 148 142 135 128 127 122 117 113 110 106 95 85 72 58 61 59 41 18 4 357
185 235 238 197 215 231 224 197 202 175 181 320 96 95 71 103 115 145 156 157 156 154 152 148 145 139 137 138 135 129 125 116 109 104 98 91 77 56 48 43 28 11 356 343
179 218 180 148 185 213 216 199 218 288 12 314 85 131 121 109 109 126 141 149 152 151 149 148 146 146 149 148 141 134 124 119 113 106 103 94 75 55 37 26 14 356 340 328
198 238 245 203 168 166 178 188 202 207 200 244 124 133 155 135 134 137 142 148 150 153 153 152 151 153 152 147 140 131 123 118 111 100 93 83 67 53 29 12 355 337 325 319
219 268 267 259 162 162 173 186 196 211 223 232 207 160 168 162 156 152 149 147 150 156 157 157 157 154 149 143 136 128 122 116 114 108 100 87 58 40 19 357 336 321 314 312
217 275 286 180 144 166 179 192 200 210 220 237 262 263 152 146 139 143 151 155 160 162 160 156 154 150 148 143 134 126 120 118 116 112 104 93 53 25 360 328 313 305 302 299
200 255 290 139 141 142 204 203 203 211 217 219 230 232 119 125 137 149 154 157 158 157 153 153 150 146 142 135 129 126 121 118 113 107 102 91 47 358 330 316 311 305 304 307
200 242 312 75 146 203 238 187 196 212 221 217 226 219 183 146 108 84 116 137 138 139 140 139 135 130 125 120 118 115 117 116 113 114 116 104 37 335 323 315 310 309 309 309
204 202 307 343 246 250 200 159 182 201 229 215 214 195 123 108 78 41 38 87 106 115 120 120 119 118 116 116 117 117 118 118 121 120 103 70 12 327 316 310 308 309 309 306
147 156 155 293 255 263 77 25 355 101 242 262 195 161 142 126 132 151 91 81 84 91 101 109 111 113 114 117 121 123 125 128 124 109 83 22 333 313 304 303 306 304 304 299
157 169 191 199 248 290 84 357 349 155 221 338 58 137 140 117 116 122 107 94 93 97 102 108 111 113 118 121 122 122 122 119 109 96 56 323 310 306 301 301 298 298 299 300
170 170 179 179 211 246 145 131 49 152 281 32 81 106 103 102 104 106 106 106 107 108 109 112 113 112 112 116 119 119 117 110 105 103 302 299 306 308 308 302 300 301 302 303
186 183 173 186 199 134 80 75 69 106 100 84 92 109 117 114 114 115 113 114 116 117 117 116 117 115 109 108 116 119 115 109 102 32 321 320 319 309 305 304 303 303 301 302
159 174 169 166 160 144 117 108 109 103 100 95 107 113 116 118 120 120 121 121 121 121 121 124 124 123 118 107 99 106 110 106 83 359 336 326 316 310 309 303 299 300 303 305
151 166 171 161 131 127 153 147 118 101 97 96 95 101 113 118 120 123 125 127 129 128 125 127 131 131 131 128 117 111 109 94 47 358 334 321 317 315 309 302 298 304 293 302
173 177 177 198 178 166 168 147 122 114 112 111 108 99 98 110 117 117 119 124 127 127 125 124 125 126 129 129 125 118 104 80 36 343 328 324 321 314 308 308 309 310 313 317
Height
1473 1475 1469 1465 1466 1464 1459 1455 1455 1451 1449 1451 1450 1449 1447 1448 1449 1449 1450 1452 1453 1455 1459 1462 1464 1464 1465 1465 1465 1465 1467 1469 1471 1473 1475 1478 1480 1482 1484 1486 1487 1488 1488 1487
1471 1465 1460 1462 1463 1463 1462 1459 1455 1448 1443 1444 1445 1444 1440 1440 1440 1442 1444 1446 1448 1451 1457 1462 1464 1464 1464 1465 1465 1466 1468 1470 1471 1473 1475 1478 1480 1483 1485 1486 1487 1487 1487 1486
1461 1454 1457 1459 1459 1459 1457 1457 1455 1451 1440 1437 1443 1446 1439 1434 1433 1434 1437 1440 1442 1446 1453 1460 1463 1464 1464 1465 1466 1467 1469 1471 1473 1474 1476 1479 1481 1483 1485 1486 1487 1487 1486 1485
1454 1453 1454 1454 1453 1454 1453 1449 1451 1449 1445 1444 1445 1453 1433 1422 1423 1427 1430 1434 1438 1443 1451 1457 1461 1462 1464 1465 1467 1468 1470 1472 1474 1476 1478 1480 1482 1483 1485 1486 1486 1485 1484 1483
1446 1445 1447 1449 1447 1449 1447 1445 1447 1446 1444 1442 1437 1445 1433 1413 1417 1421 1425 1430 1435 1442 1449 1455 1459 1461 1463 1465 1467 1469 1471 1473 1475 1477 1479 1481 1482 1483 1484 1485 1484 1483 1482 1481
1442 1441 1440 1440 1441 1444 1445 1447 1445 1442 1441 1447 1436 1441 1432 1412 1409 1415 1421 1427 1433 1440 1447 1453 1457 1460 1462 1465 1467 1469 1471 1473 1476 1478 1480 1481 1482 1483 1483 1483 1483 1482 1480 1479
1438 1434 1434 1436 1438 1439 1444 1445 1442 1441 1444 1440 1426 1431 1425 1405 1399 1405 1415 1424 1432 1439 1445 1450 1455 1458 1462 1465 1467 1470 1472 1473 1476 1477 1479 1480 1481 1482 1482 1482 1481 1480 1479 1477
1431 1426 1423 1426 1429 1428 1432 1436 1430 1428 1435 1428 1419 1423 1411 1403 1403 1406 1414 1423 1431 1438 1444 1449 1453 1457 1460 1464 1467 1469 1471 1473 1475 1477 1478 1479 1480 1481 1481 1480 1480 1478 1477 1474
1426 1418 1410 1414 1419 1423 1423 1423 1412 1406 1409 1417 1417 1409 1408 1405 1408 1411 1416 1423 1430 1437 1442 1448 1452 1456 1459 1463 1466 1468 1470 1472 1474 1475 1477 1478 1479 1479 1479 1479 1478 1476 1474 1472
1427 1420 1408 1410 1417 1418 1413 1409 1408 1405 1409 1416 1413 1410 1409 1410 1411 1412 1416 1422 1428 1435 1441 1446 1450 1454 1458 1462 1464 1467 1469 1470 1472 1474 1475 1477 1477 1477 1477 1476 1475 1473 1471 1469
1424 1424 1410 1408 1409 1406 1406 1404 1400 1396 1393 1402 1413 1411 1392 1399 1402 1408 1412 1418 1425 1432 1438 1444 1449 1453 1457 1460 1463 1465 1467 1469 1471 1472 1474 1475 1475 1475 1475 1474 1472 1470 1468 1466
1419 1420 1409 1403 1401 1400 1398 1394 1394 1399 1398 1394 1400 1415 1393 1396 1399 1403 1409 1416 1424 1431 1437 1442 1447 1451 1454 1457 1460 1463 1465 1467 1469 1470 1472 1473 1473 1473 1472 1471 1469 1467 1465 1463
1410 1412 1404 1403 1404 1401 1397 1393 1390 1391 1395 1397 1404 1415 1397 1399 1402 1404 1408 1415 1422 1429 1435 1440 1444 1448 1451 1455 1458 1460 1462 1465 1467 1468 1470 1471 1471 1470 1469 1468 1466 1465 1462 1460
1401 1400 1397 1391 1389 1391 1394 1393 1392 1396 1403 1400 1397 1405 1401 1402 1404 1406 1410 1415 1421 1427 1432 1437 1441 1445 1449 1453 1456 1458 1460 1463 1465 1466 1468 1468 1468 1468 1467 1465 1464 1462 1459 1457
1398 1394 1387 1380 1377 1383 1388 1391 1393 1397 1397 1400 1394 1396 1398 1398 1401 1405 1409 1415 1420 1426 1430 1435 1439 1443 1447 1451 1454 1456 1458 1461 1463 1465 1466 1466 1466 1465 1464 1462 1460 1458 1456 1453
1395 1392 1384 1379 1376 1379 1386 1388 1391 1394 1395 1396 1395 1394 1389 1392 1397 1403 1408 1413 1418 1423 1428 1433 1437 1441 1445 1448 1451 1453 1456 1459 1461 1463 1463 1464 1463 1462 1461 1459 1457 1455 1452 1448
1390 1389 1385 1384 1379 1381 1389 1383 1385 1388 1388 1392 1396 1394 1391 1395 1398 1401 1406 1411 1416 1421 1426 1431 1435 1439 1443 1446 1449 1451 1454 1458 1459 1461 1461 1461 1460 1459 1458 1456 1454 1451 1448 1444
1386 1387 1387 1387 1387 1398 1379 1368 1373 1379 1381 1384 1386 1387 1390 1394 1398 1402 1406 1410 1415 1420 1425 1430 1434 1438 1442 1445 1447 1450 1454 1456 1458 1459 1459 1458 1458 1457 1455 1453 1450 1447 1443 1439
1383 1387 1390 1393 1390 1384 1375 1372 1371 1377 1379 1377 1380 1385 1390 1394 1400 1406 1408 1411 1415 1419 1424 1429 1433 1436 1439 1443 1446 1450 1453 1455 1456 1456 1456 1456 1455 1454 1452 1450 1447 1443 1439 1435
1384 1387 1394 1395 1396 1392 1382 1374 1372 1375 1381 1374 1374 1380 1388 1392 1405 1411 1411 1412 1416 1420 1424 1428 1432 1435 1438 1442 1446 1449 1451 1453 1454 1454 1454 1454 1453 1451 1449 1446 1443 1439 1435 1430
1389 1391 1395 1396 1396 1386 1380 1376 1376 1387 1385 1377 1375 1378 1386 1391 1397 1405 1410 1414 1417 1421 1425 1428 1431 1435 1438 1442 1445 1448 1450 1452 1452 1452 1452 1451 1450 1448 1446 1443 1439 1435 1430 1425
1383 1389 1392 1394 1397 1393 1379 1379 1381 1383 1381 1379 1379 1382 1388 1393 1399 1405 1410 1415 1419 1422 1426 1429 1431 1435 1439 1442 1445 1447 1449 1450 1450 1450 1450 1449 1447 1445 1442 1439 1435 1431 1426 1421
1374 1375 1378 1382 1384 1378 1378 1379 1380 1381 1382 1382 1384 1387 1391 1396 1403 1408 1412 1416 1420 1423 1427 1430 1432 1436 1439 1442 1445 1446 1447 1448 1448 1448 1447 1446 1445 1442 1439 1435 1431 1426 1422 1417
1367 1368 1370 1374 1376 1377 1378 1379 1380 1382 1384 1386 1388 1391 1395 1399 1405 1410 1414 1418 1421 1425 1427 1430 1433 1436 1439 1442 1443 1445 1445 1446 1446 1445 1445 1443 1441 1438 1435 1432 1427 1423 1418 1413
1364 1367 1369 1371 1375 1377 1378 1379 1381 1383 1386 1389 1393 1396 1399 1403 1408 1412 1416 1419 1422 1425 1428 1431 1433 1436 1439 1441 1442 1443 1443 1444 1444 1443 1442 1440 1438 1435 1431 1427 1424 1419 1415 1411
1362 1364 1367 1367 1367 1371 1375 1378 1381 1384 1388 1391 1395 1399 1404 1406 1410 1413 1417 1420 1423 1425 1428 1430 1433 1435 1437 1439 1440 1441 1442 1442 1441 1441 1439 1437 1434 1431 1427 1422 1418 1414 1411 1407